Terminal Aerodrome Forecast
Issued by NWS

Home | Current Version | Previous Version | Graphics & Text | Print | Product List | Glossary On
Versions: 1 2 3 4 5 6 7 8 9 10 11 12 13 14 15 16 17 18 19 20 21 22 23 24 25 26 27 28 29 30 31 32 33 34 35 36 37 38 39 40 41 42 43 44 45 46
967
FTUS43 KLOT 260855 AAA
TAFGYY
TAF AMD
KGYY 260855Z 2609/2706 27008KT P6SM SCT250
     FM261500 28015G24KT P6SM BKN050
     FM262200 31014G22KT P6SM VCSH SCT045 BKN060
     FM270030 02012KT P6SM SCT060=

USA.gov is the U.S. government's official web portal to all federal, state and local government web resources and services.